Tracking 29932 objects as of 3-Dec-2024
HD Live streaming from Space Station
objects crossing your sky now

STARLINK-11127

Track STARLINK-11127 now!
10-day predictions
STARLINK-11127 is classified as:


NORAD ID: 60119
Int'l Code: 2024-118G
Perigee: 366.2 km
Apogee: 367.6 km
Inclination: 53.2 °
Period: 91.7 minutes
Semi major axis: 6737 km
RCS: Unknown
Launch date: June 24, 2024
Source: United States (US)
Launch site: AIR FORCE WESTERN TEST RANGE (AFWTR)
Your satellite tracking list
Your tracking list is empty




NASA's NSSDC Master Catalog

Two Line Element Set (TLE):
1 60119U 24118G   24338.02329550 -.00000198  00000-0  32235-5 0  9998
2 60119  53.1571 337.0882 0001000 122.6821 237.4294 15.69705023 26361
Source of the keplerian elements: AFSPC